User: anonymous   Login
Location: Borgo
(42.3939°N, 9.2791°E)
Time: 02:58:35
(UTC+00:00)
Language:

H-2A R/B - Orbit

View from above orbital plane
View from above orbital plane
View from above satellite
View from above satellite

Ground track
Ground track

The orbit data is extracted from the following two-line orbital elements,

1 28932U 06002B   21107.52737541  .00000698  00000-0  69342-4 0  9998
2 28932  98.3313 120.9728 0089316  47.5124  68.7832 14.92508133826491
Epoch (UTC): 17 April 2021 12:39:25
Eccentricity: 0.0089316
inclination: 98.3313°
perigee height: 528 km
apogee height: 652 km
right ascension of ascending node: 120.9728°
argument of perigee: 47.5124°
revolutions per day: 14.92508133
mean anomaly at epoch: 68.7832°
orbit number at epoch: 82649

The dashed part of the orbit path shows where the satellite is in the earth's shadow,  

DLR